Location: Antioch Baptist Church
(32.6696°N, 85.7327°W)
Time: 12:26:21
(UTC+00:00)

Cosmos 2278 - Pass Details

Date: 14 July 2020
Orbit: 838 x 854 km, 71.1° (Epoch: 08 August)

Event Time Altitude Azimuth Distance (km) Brightness Sun altitude
Rises 08:51:56 0° 336° (NNW) 3,426 7.1 -20.3°
Reaches altitude 10° 08:54:24 10° 334° (NNW) 2,487 6.4 -20.0°
Maximum altitude 09:00:04 69° 253° (WSW) 909 3.6 -19.1°
Drops below altitude 10° 09:05:43 10° 170° (S) 2,469 5.8 -18.2°
Enters shadow 09:06:02 - 170° (S) 2,591 5.9 -18.2°
